Location: La Bilong�re
(48.1297°N, 1.4584°W)
Time: 21:19:06
(UTC+00:00)

Cosmos 1933 Rocket - Pass Details

Date: 03 March 2021
Orbit: 607 x 629 km, 82.5° (Epoch: 14 April)

Event Time Altitude Azimuth Distance (km) Brightness Sun altitude
Rises 18:56:23 0° 173° (S) 2,860 6.9 -11.3°
Reaches altitude 10° 18:58:38 10° 168° (SSE) 1,963 6.0 -11.7°
Maximum altitude 19:02:49 50° 94° (E) 789 3.7 -12.4°
Drops below altitude 10° 19:07:05 10° 19° (NNE) 1,992 6.0 -13.1°
Sets 19:09:22 0° 14° (NNE) 2,907 6.9 -13.5°
